Location: Starlight Observatory
(38.4029°N, 85.8936°W)
Time: 18:10:56
(UTC-04:00)

Daily predictions for brighter satellites

Satellite Brightness Start Highest point End
(mag) Time Altitude Azimuth Time Altitude Azimuth Time Altitude Azimuth
Cosmos 1302 Rocket 4.1 21:22:09 10° NNW 21:27:26 84° ENE 21:32:41 10° SSE
PSLV R/B 3.9 21:26:02 10° W 21:29:31 62° N 21:33:03 10° ENE
Tsikada Rocket 4.4 21:23:31 10° SSE 21:29:34 46° E 21:35:35 10° NNE
CZ-2D R/B 3.8 21:29:41 10° S 21:33:32 62° WSW 21:37:26 10° NNW
CZ-2C R/B 0.8 21:33:43 10° SSE 21:35:54 43° ENE 21:38:05 10° N
SPOT 5 4.1 21:33:02 10° ESE 21:36:23 22° ENE 21:39:43 10° NNE
Aureole 2 Rocket 4.1 21:32:58 10° SW 21:36:36 40° WNW 21:39:56 10° N
Timation 1 Rocket 4.4 21:33:39 10° NNW 21:39:42 89° WSW 21:45:41 10° SSE
Lacrosse 4 Rocket 2.5 21:38:11 10° SSE 21:41:19 22° ESE 21:44:29 10° ENE
H-2A R/B 2.4 21:37:12 10° SSE 21:41:19 50° ENE 21:45:34 10° N
YAOGAN 11 4.1 21:37:32 10° SSE 21:41:53 88° W 21:46:12 10° NNW
ERS-1 Rocket 3.0 21:38:40 10° SSE 21:43:38 68° ENE 21:48:38 10° N
Cosmos 1464 Rocket 4.1 21:37:45 10° N 21:43:56 83° W 21:50:07 10° S
deb Chang Zheng 4 3.6 21:40:44 10° NNE 21:45:05 61° ESE 21:49:23 10° S
Cosmos 2228 3.2 21:41:59 10° N 21:46:24 79° W 21:50:46 10° S
GEOS 3 Rocket 3.7 21:42:52 10° SE 21:48:07 73° NE 21:53:20 10° NNW
Cosmos 1626 Rocket 3.5 21:44:07 10° S 21:48:32 81° E 21:52:57 10° N
CZ-4 DEB 4.0 21:46:59 10° S 21:50:02 41° W 21:53:08 10° NNW
Cosmos 1603 4.0 21:45:42 10° SSW 21:51:17 74° WNW 21:56:54 10° NNE
FENGYUN 3A 4.2 21:46:12 10° S 21:51:29 60° W 21:56:50 10° NNW
Meteor 1-15 Rocket 4.5 21:46:02 10° NNW 21:51:37 73° W 21:57:17 10° S
Atlas Centaur 2 3.2 21:49:12 10° WSW 21:55:43 46° S 22:03:24 10° ESE
Cosmos 1238 4.5 21:55:37 10° SSE 21:58:35 44° E 22:01:29 10° NNE
Envisat 3.3 21:54:15 11° SE 21:58:59 49° ENE 22:03:53 10° N
Cosmos 407 Rocket 4.2 21:56:52 10° SSE 22:01:30 32° E 22:06:07 10° NE
Cosmos 1943 Rocket 4.0 22:01:22 10° N 22:05:06 18° NE 22:08:50 10° E
Cosmos 2034 Rocket 4.2 21:58:54 10° N 22:05:15 76° W 22:11:32 10° S
Nimbus 7 Rocket 4.4 22:01:10 10° NNE 22:07:07 72° ESE 22:12:58 10° S
Cosmos 1461 4.4 22:04:56 10° NW 22:08:39 30° WSW 22:12:13 10° S
Cosmos 1953 Rocket 4.5 22:06:21 16° SE 22:09:09 30° E 22:13:02 10° NNE
Cosmos 1943 3.2 22:05:59 10° S 22:11:35 67° ESE 22:17:15 10° NNE
Cosmos 1939 Rocket 3.0 22:13:44 12° S 22:17:32 83° WSW 22:21:42 10° NNW
GRACE-1 4.4 22:15:21 10° N 22:18:12 61° W 22:20:48 12° SSW
GRACE-2 4.4 22:15:49 10° N 22:18:38 60° W 22:21:13 12° SSW
Cosmos 1346 Rocket 2.9 22:27:06 22° SSE 22:29:21 51° E 22:33:11 10° NNE
Cosmos 1992 Rocket 4.0 22:28:58 10° NNW 22:34:13 80° WSW 22:37:49 20° SSE
Cosmos 1842 4.5 22:35:17 24° E 22:35:41 24° E 22:38:54 10° NE
SeaSat 1 2.5 22:35:39 25° SE 22:38:28 67° ENE 22:43:24 10° NNW
ARGOS 3.6 22:36:49 24° SE 22:39:41 46° ENE 22:44:51 10° N
SL-23 DEB 4.4 22:34:43 10° SW 22:42:03 78° SE 22:46:10 10° NE
COSMOS 2455 4.2 22:36:28 10° SW 22:42:06 41° NW 22:47:47 10° NNE
Cosmos 1758 Rocket 3.6 22:40:29 27° SSE 22:42:42 58° E 22:46:59 10° NNE
Meteor 1-21 4.5 22:39:58 22° SSE 22:43:35 53° E 22:49:14 10° NNE
USA 81 4.0 22:38:39 10° N 22:43:58 86° E 22:47:29 22° S
MetOp-B 4.1 22:45:19 23° SSE 22:48:47 85° WSW 22:54:11 10° NNW
ISS -0.1 22:47:30 10° WNW 22:49:39 16° NNW 22:51:49 10° NNE
CZ-4B R/B 3.6 22:50:05 10° NNE 22:55:15 83° WNW 22:59:55 13° SSW
Cosmos 2369 Rocket 2.3 22:50:32 10° NNW 22:56:10 71° WSW 22:59:14 28° S
Cosmos 1825 Rocket 4.3 22:54:32 11° SSW 22:58:44 51° W 23:03:04 10° N
Landsat 7 4.4 22:58:24 33° ESE 22:59:49 41° ENE 23:04:16 10° N
Cosmos 1766 3.3 22:58:12 10° N 23:02:13 66° E 23:03:01 51° SE
H-2A R/B 2.7 23:04:51 31° ESE 23:06:14 37° ENE 23:10:53 10° N
CZ-4 R/B 3.9 23:01:25 10° NNE 23:06:27 87° E 23:09:22 26° SSW
DELTA 2 DEB (DPAF) 4.3 23:05:25 43° SE 23:06:35 57° ENE 23:11:00 10° N
PSLV R/B 3.8 23:03:52 10° WNW 23:07:23 59° N 23:08:17 42° ENE
YAOGAN 6 3.0 23:06:29 40° SSW 23:07:34 59° W 23:11:17 10° NNW
NOAA 11 4.1 23:05:44 36° SSE 23:08:02 76° ENE 23:13:28 10° N
Cosmos 1758 4.1 23:04:14 10° N 23:08:02 35° ENE 23:08:15 35° E
ATLAS 3B R/B 3.4 23:00:43 10° SW 23:08:20 62° NW 23:15:49 10° NNE
Cosmos 1140 Rocket 3.7 23:07:18 40° SE 23:08:38 49° ESE 23:13:41 10° NNE
IGS 5A 4.4 23:12:41 31° E 23:12:59 31° ENE 23:16:41 10° N
SPOT 5 4.2 23:11:39 16° SSW 23:14:19 29° W 23:18:06 10° NW
SPOT 1/Viking Rocket 3.7 23:12:55 32° S 23:15:18 66° WSW 23:20:26 10° NNW
Terra 2.4 23:14:42 37° E 23:15:37 41° ENE 23:20:05 10° N
Cosmos 676 Rocket 4.3 23:10:42 11° SSW 23:15:44 68° WNW 23:21:04 10° NNE
NOSS 3-2 (A) 4.5 23:20:31 27° E 23:20:31 27° E 23:25:06 10° NE
Lacrosse 4 Rocket 3.4 23:16:22 10° WSW 23:19:52 28° NW 23:23:25 10° N
SAR-Lupe-2 4.1 23:23:38 47° NE 23:23:38 47° NE 23:26:48 10° N
Cosmos 2084 3.6 23:19:58 10° NNW 23:24:05 58° NE 23:24:37 53° E
USA 234 3.3 23:21:50 33° ESE 23:25:01 74° NE 23:31:35 10° NW
Cosmos 1092 Rocket 4.4 23:27:08 38° ESE 23:28:28 43° E 23:34:20 10° NNE
ATLAS 5 CENTAUR R/B4.323:48:12ESE23:48:12ESE23:23:05SW
Cosmos 1805 3.5 23:26:21 10° N 23:29:59 54° ENE 23:29:59 54° ENE
SL-24 R/B 4.5 23:25:50 10° N 23:30:54 89° E 23:32:38 45° S
Cosmos 614 Rocket 4.2 23:30:46 48° ESE 23:30:57 49° ESE 23:35:57 10° NNE
COSMOS 2406 3.1 23:33:42 37° SSW 23:36:05 85° ESE 23:41:51 10° NNE
Nadezhda 4 Rocket 4.0 23:34:52 45° SSE 23:36:53 70° E 23:43:11 10° NNE
CZ-4C R/B 3.7 23:38:41 55° SW 23:39:04 58° WSW 23:43:04 10° NNW
DMSP B5D2-2 3.9 23:39:09 10° NNE 23:44:27 79° ESE 23:45:23 60° S
Atlas Centaur 2 3.4 23:37:55 10° WSW 23:45:01 41° S 23:46:01 40° S
SL-27 R/B 3.8 23:45:17 33° WNW 23:45:29 33° WNW 23:48:35 10° N
Cosmos 2221 4.3 23:45:00 10° NNE 23:47:39 20° ENE 23:47:39 20° ENE
SL-8 R/B 4.4 23:43:40 10° NW 23:48:22 48° NNE 23:49:39 38° ENE
Cosmos 1943 Rocket 2.3 23:43:49 10° NNW 23:49:19 65° WSW 23:50:26 53° SSW
Cosmos-2242 3.5 23:46:52 10° NNW 23:51:10 52° W 23:51:34 50° WSW
COSMOS 2487 4.1 23:54:06 29° NNE 23:54:06 29° NNE 23:56:01 10° NNE
